• Join FlightAware (Why Join?)
  • Login
  • US Flag 
05:01PM EST


 

Airport Tracker/Info


-or-


 

Live Flight TrackerFlight Track Log ✈ GJS6221 ✈ 22-Dec-2013 ✈ KLGA - KSAV

Flight Track Log - Related Links

Times and Time Zones

All times are in EST time to prevent confusion due to time zone crossing. See the GJS6221 flight status page for this flight to view local times or setup timezone preferences in your user account.

Time Position Orientation Groundspeed Altitude Reporting Facility
EST Latitude Longitude Course Direction KTS MPH feet Rate Location/Type
02:08PM 40.7500 -73.8167 214° Southwest 181 208 2,000  Level New York TRACON
02:09PM 40.8167 -73.7500 37° Northeast 254 292 4,100 1,872 Climbing New York TRACON
02:10PM 40.8500 -73.8000 311° West 230 265 5,900 2,231 Climbing New York TRACON
02:11PM 40.8167 -73.8833 242° Southwest 227 261 8,600 2,579 Climbing New York TRACON
02:12PM 40.7833 -73.9500 237° Southwest 251 289 11,100 1,700 Climbing New York TRACON
02:13PM 40.3978 -74.2411 214° Southwest  Level Estimated
02:13PM 40.7167 -73.9833 201° Southwest 258 297 12,000  Level New York TRACON
02:14PM 40.6667 -74.0333 217° Southwest 237 273 12,000  Level New York TRACON
02:15PM 40.6333 -74.1167 242° Southwest 242 278 12,000 756 Level New York TRACON
02:16PM 40.6000 -74.1833 237° Southwest 239 275 13,500 1,789 Climbing New York TRACON
02:17PM 40.5333 -74.2000 191° South 285 328 15,400 1,461 Climbing New York TRACON
02:18PM 40.4833 -74.1000 123° Southeast 380 437 16,300 800 Climbing New York TRACON
02:19PM 40.3833 -74.1000 180° South 339 390 17,000 421 Climbing New York TRACON
02:19PM 40.3011 -74.1347 198° South 339 390 17,100 -53 Climbing New York Center
02:20PM 40.2189 -74.1661 196° South 345 397 16,900 400 Descending New York Center
02:21PM 40.1303 -74.2025 197° South 345 397 17,900 1,300 Climbing New York Center
02:22PM 40.0250 -74.2433 197° South 351 404 19,500 1,550 Climbing New York Center
02:23PM 39.9417 -74.3122 212° Southwest 357 411 21,000 934 Climbing New York Center
02:25PM 39.8100 -74.4436 217° Southwest 353 406 22,100 898 Climbing Washington Center
02:26PM 39.7442 -74.5283 225° Southwest 347 399 23,500 966 Climbing Washington Center
02:27PM 39.6844 -74.6100 226° Southwest 342 394 24,000 254 Climbing Washington Center
02:28PM 39.6164 -74.6944 224° Southwest 342 394 24,000 446 Level Washington Center
02:29PM 39.5525 -74.7842 227° Southwest 342 394 24,900 885 Climbing Washington Center
02:30PM 39.4822 -74.8764 225° Southwest 347 399 25,800 857 Climbing Washington Center
02:31PM 39.4139 -74.9656 225° Southwest 353 406 26,600 800 Climbing Washington Center
02:32PM 39.3456 -75.0603 227° Southwest 353 406 27,400 787 Climbing Washington Center
02:33PM 39.2753 -75.1572 227° Southwest 358 412 28,200 814 Climbing Washington Center
02:34PM 39.1961 -75.2433 220° Southwest 363 418 29,000 800 Climbing Washington Center
02:35PM 39.1047 -75.3108 210° Southwest 370 426 29,800 750 Climbing Washington Center
02:36PM 39.0153 -75.3778 210° Southwest 377 434 30,500 605 Climbing Washington Center
02:37PM 38.9194 -75.4450 209° Southwest 382 440 31,000 492 Climbing Washington Center
02:38PM 38.8258 -75.5169 211° Southwest 388 447 31,500 655 Climbing Washington Center
02:39PM 38.7297 -75.5864 209° Southwest 395 455 32,300 814 Climbing Washington Center
02:40PM 38.6361 -75.6528 209° Southwest 400 460 33,100 800 Climbing Washington Center
02:41PM 38.5442 -75.7192 209° Southwest 390 449 33,900 793 Climbing Washington Center
02:42PM 38.4525 -75.7878 210° Southwest 390 449 34,700 893 Climbing Washington Center
02:43PM 38.3500 -75.8592 209° Southwest 390 449 35,700 992 Climbing Washington Center
02:44PM 38.2603 -75.9222 209° Southwest 380 437 36,700 1,008 Climbing Washington Center
02:45PM 38.1747 -75.9825 209° Southwest 373 429 37,700 661 Climbing Washington Center
02:46PM 38.0889 -76.0481 211° Southwest 363 418 38,000 150 Climbing Washington Center
02:47PM 38.0011 -76.1083 208° Southwest 358 412 38,000  Level Washington Center
02:48PM 37.9131 -76.1733 210° Southwest 358 412 38,000  Level Washington Center
02:49PM 37.8211 -76.2383 209° Southwest 363 418 38,000  Level Washington Center
02:50PM 37.7289 -76.3008 208° Southwest 374 430 38,000  Level Washington Center
02:51PM 37.6347 -76.3706 210° Southwest 386 444 38,000  Level Washington Center
02:52PM 37.5425 -76.4353 209° Southwest 386 444 38,000  Level Washington Center
02:53PM 37.4503 -76.4997 209° Southwest 386 444 38,000  Level Washington Center
02:54PM 37.3581 -76.5611 208° Southwest 386 444 38,000  Level Washington Center
02:55PM 37.2678 -76.6228 209° Southwest 380 437 38,000  Level Washington Center
02:56PM 37.1794 -76.6867 210° Southwest 380 437 38,000  Level Washington Center
02:57PM 37.0892 -76.7506 209° Southwest 380 437 38,000  Level Washington Center
02:58PM 36.9989 -76.8142 209° Southwest 380 437 38,000  Level Washington Center
02:59PM 36.9086 -76.8778 209° Southwest 380 437 38,000  Level Washington Center
03:00PM 36.8119 -76.9436 209° Southwest 385 443 38,000  Level Washington Center
03:01PM 36.7172 -77.0092 209° Southwest 390 449 38,000  Level Washington Center
03:02PM 36.6308 -77.0906 217° Southwest 390 449 38,000  Level Washington Center
03:03PM 36.5461 -77.1717 218° Southwest 390 449 38,000  Level Washington Center
03:04PM 36.4617 -77.2500 217° Southwest 390 449 38,000  Level Washington Center
03:05PM 36.3772 -77.3308 218° Southwest 390 449 38,000  Level Washington Center
03:06PM 36.2925 -77.4089 217° Southwest 390 449 38,000  Level Washington Center
03:07PM 36.2142 -77.4842 218° Southwest 384 442 38,000  Level Washington Center
03:08PM 36.1314 -77.5619 217° Southwest 378 435 38,000  Level Washington Center
03:09PM 36.0467 -77.6419 217° Southwest 378 435 38,000  Level Washington Center
03:10PM 35.9725 -77.7094 216° Southwest 378 435 38,000  Level Washington Center
03:11PM 35.8897 -77.7892 218° Southwest 378 435 38,000  Level Washington Center
03:12PM 35.8047 -77.8664 216° Southwest 373 429 38,000  Level Washington Center
03:13PM 35.7219 -77.9483 219° Southwest 378 435 38,000  Level Washington Center
03:14PM 35.6369 -78.0250 216° Southwest 378 435 38,000  Level Washington Center
03:15PM 35.5517 -78.1067 218° Southwest 378 435 38,000  Level Washington Center
03:16PM 35.4664 -78.1881 218° Southwest 378 435 38,000  Level Washington Center
03:17PM 35.3792 -78.2669 216° Southwest 383 441 38,000  Level Washington Center
03:18PM 35.2917 -78.3506 218° Southwest 395 455 38,000  Level Washington Center
03:19PM 35.2064 -78.4339 219° Southwest 400 460 38,000  Level Washington Center
03:20PM 35.1208 -78.5147 218° Southwest 400 460 38,000  Level Washington Center
03:21PM 35.0356 -78.5953 218° Southwest 400 460 38,000 -99 Level Washington Center
03:22PM 34.9500 -78.6758 218° Southwest 400 460 37,800 -610 Descending Washington Center
03:23PM 34.8644 -78.7561 218° Southwest 400 460 36,800 -1,017 Descending Washington Center
03:24PM 34.7789 -78.8336 217° Southwest 400 460 35,800 -992 Descending Washington Center
03:25PM 34.6933 -78.9136 218° Southwest 400 460 34,800 -557 Descending Washington Center
03:27PM 34.4869 -79.1092 218° Southwest 403 464 34,000 -247 Descending Jacksonville Center
03:28PM 34.3997 -79.1933 219° Southwest 403 464 34,000  Level Jacksonville Center
03:29PM 34.3061 -79.2753 216° Southwest 411 473 34,000  Level Jacksonville Center
03:30PM 34.2167 -79.3569 217° Southwest 411 473 34,000  Level Jacksonville Center
03:31PM 34.1372 -79.4253 215° Southwest 403 464 34,000  Level Jacksonville Center
03:32PM 34.0456 -79.5092 217° Southwest 403 464 34,000  Level Jacksonville Center
03:33PM 33.9558 -79.5903 217° Southwest 403 464 34,000  Level Jacksonville Center
03:34PM 33.8664 -79.6736 218° Southwest 408 470 34,000  Level Jacksonville Center
03:35PM 33.7764 -79.7544 217° Southwest 408 470 34,000  Level Jacksonville Center
03:36PM 33.6886 -79.8325 217° Southwest 403 464 34,000 -153 Level Jacksonville Center
03:37PM 33.5989 -79.9128 217° Southwest 403 464 33,700 -1,160 Descending Jacksonville Center
03:38PM 33.5108 -79.9931 217° Southwest 403 464 31,700 -1,967 Descending Jacksonville Center
03:39PM 33.4208 -80.0731 217° Southwest 403 464 29,700 -2,218 Descending Jacksonville Center
03:40PM 33.3186 -80.1633 216° Southwest 403 464 27,300 -2,237 Descending Jacksonville Center
03:41PM 33.2389 -80.2403 219° Southwest 403 464 25,300 -1,835 Descending Jacksonville Center
03:42PM 33.1608 -80.3044 215° Southwest 392 451 23,600 -1,835 Descending Jacksonville Center
03:43PM 33.0767 -80.3764 216° Southwest 382 440 21,600 -1,785 Descending Jacksonville Center
03:44PM 32.9864 -80.4583 217° Southwest 376 433 20,000 -843 Descending Jacksonville Center
03:45PM 32.9064 -80.5272 216° Southwest 376 433 19,900 -992 Descending Jacksonville Center
03:46PM 32.8264 -80.5986 217° Southwest 376 433 18,000 -1,932 Descending Jacksonville Center
03:47PM 32.7442 -80.6697 216° Southwest 376 433 16,100 -2,000 Descending Jacksonville Center
03:48PM 32.6658 -80.7358 215° Southwest 371 427 14,100 -1,967 Descending Jacksonville Center
03:49PM 32.5836 -80.8092 217° Southwest 356 410 12,100 -1,650 Descending Jacksonville Center
03:50PM 32.5117 -80.8750 218° Southwest 345 397 10,800 -1,160 Descending Jacksonville Center
03:51PM 32.4411 -80.8986 196° South 273 314 9,800 -1,426 Descending Jacksonville Center
03:52PM 32.3747 -80.9344 205° Southwest 260 299 7,900 -1,835 Descending Jacksonville Center
03:53PM 32.3192 -80.9775 213° Southwest 250 288 6,100 -1,780 Descending Jacksonville Center
03:54PM 32.2653 -81.0131 209° Southwest 250 288 4,400 -1,729 Descending Jacksonville Center
03:55PM 32.2075 -81.0561 212° Southwest 250 288 2,700 -1,388 Descending Jacksonville Center
03:56PM 32.1539 -81.0989 214° Southwest 236 272 1,600 -893 Descending Jacksonville Center
03:57PM 32.1294 -81.1361 232° Southwest 178 205 900 -700 Descending Jacksonville Center
03:59PM 32.1167 -81.2000 180° South  Level FlightAware Approximate
04:06PM 32.1276 -81.2021 180° South  Level Estimated
04:07PM 32.1276 -81.2021 180° South  Level Estimated
04:08PM 32.1276 -81.2021 180° South  Level Estimated
04:09PM 32.1276 -81.2021 180° South  Level Estimated
04:10PM 32.1276 -81.2021 180° South  Level Estimated
04:11PM 32.1276 -81.2021 180° South  Level Estimated